Flag for Germany Weather past 2 weeks in Rastatt, Baden-Württemberg, Germany

Now
41 °F

Sunny.


Feels Like: 33 °F
Forecast: 38 / 45 °F
Wind: 15 mph from Southwest

Location: Karlsruhe - Baden Wurttemberg

Current Time: Dec 20, 2014 at 9:04:07 AM

Latest Report: Dec 20, 2014 at 8:20 AM


Visibility: 10 mi

Pressure: 30.33 "Hg

Humidity: 70%

Dew point: 32 °F

Location of RastattLocation

Historic Weather in Rastatt — Graph

°F

Rastatt temperature yesterday

Maximum temperature yesterday: 52 °F (at 9:20 AM)
Minimum temperature yesterday: 46 °F (at 11:50 PM)
Average temperature yesterday: 50 °F

Past Weeks' High & Low Weather Summary

 TemperatureHumidityPressure
High54 °F (Dec 18, 5:50 PM)100% (Dec 9, 5:20 AM)30.45 "Hg (Dec 9, 5:20 AM)
Low28 °F (Dec 8, 8:50 PM)50% (Dec 15, 2:50 PM)29.71 "Hg (Dec 12, 4:20 PM)
Average42 °F84%30.06 "Hg
* Reported Dec 5 7:20 AM — Dec 20 7:50 AM, Rastatt, Weather by CustomWeather, © 2014

Note: Actual official high and low records may vary slightly from our data, if they occured in-between our weather recording intervals... More about our weather records

Advertising

Rastatt weather history for previous 24 hours

 ConditionsComfort  
Time TempWeatherWind HumidityBarometerVisibility
7:50 AM
Dec 20
41 °FPassing clouds.13 mph76%30.33 "HgN/A
7:20 AM41 °FPassing clouds.13 mph76%30.33 "HgN/A
6:50 AM41 °FPassing clouds.10 mph76%30.33 "HgN/A
6:20 AM37 °FPassing clouds.9 mph81%30.33 "HgN/A
5:50 AM41 °FClear.10 mph76%30.30 "Hg10 mi
5:20 AM41 °FPassing clouds.9 mph81%30.30 "HgN/A
4:50 AM41 °FPassing clouds.10 mph81%30.30 "HgN/A
12:50 AM46 °FPassing clouds.7 mph76%30.24 "HgN/A
12:20 AM46 °FPassing clouds.7 mph76%30.24 "HgN/A
11:50 PM
Dec 19
46 °FPartly cloudy.7 mph82%30.24 "HgN/A
11:20 PM48 °FPartly cloudy.5 mph76%30.21 "HgN/A
10:50 PM50 °FPassing clouds.8 mph76%30.18 "HgN/A
10:20 PM48 °FPassing clouds.9 mph87%30.18 "HgN/A
9:50 PM48 °FScattered showers. Passing clouds.13 mph87%30.15 "HgN/A
9:20 PM48 °FScattered showers. Passing clouds.15 mph87%30.12 "HgN/A
8:50 PM48 °FLight rain. Passing clouds.17 mph94%30.12 "Hg6 mi
8:20 PM48 °FRain. Passing clouds.20 mph94%30.09 "Hg6 mi
7:50 PM48 °FRain. Passing clouds.17 mph94%30.09 "Hg6 mi
7:20 PM48 °FPassing clouds.20 mph87%30.07 "Hg6 mi
6:50 PM50 °FRain. Passing clouds.20 mph82%30.04 "Hg6 mi
6:20 PM50 °FLight rain. Passing clouds.20 mph82%30.04 "HgN/A
5:50 PM50 °FRain. Passing clouds.22 mph82%30.04 "HgN/A
5:20 PM50 °FRain. Passing clouds.21 mph82%30.04 "HgN/A
4:50 PM50 °FRain. Passing clouds.17 mph82%30.04 "HgN/A
4:20 PM50 °FLight rain. Partly sunny.15 mph82%30.07 "HgN/A
3:50 PM50 °FSprinkles. Partly sunny.16 mph76%30.07 "HgN/A
3:20 PM50 °FSprinkles. Partly sunny.14 mph76%30.07 "HgN/A
2:50 PM52 °FPartly sunny.16 mph72%30.07 "HgN/A
2:20 PM52 °FPartly sunny.20 mph67%30.07 "HgN/A
1:50 PM52 °FPartly sunny.20 mph67%30.07 "HgN/A
1:20 PM52 °FScattered showers. Partly sunny.20 mph67%30.07 "HgN/A
12:50 PM52 °FScattered showers. Partly sunny.23 mph67%30.07 "HgN/A
12:20 PM52 °FPartly sunny.18 mph72%30.09 "HgN/A
11:50 AM52 °FPartly sunny.18 mph72%30.09 "HgN/A
11:20 AM52 °FPartly sunny.17 mph72%30.09 "HgN/A
10:50 AM52 °FPartly sunny.16 mph72%30.12 "HgN/A
10:20 AM50 °FPartly sunny.14 mph82%30.12 "HgN/A
9:50 AM52 °FPartly sunny.15 mph72%30.12 "HgN/A
9:20 AM52 °FPartly sunny.17 mph77%30.12 "HgN/A
Weather by CustomWeather, © 2014

See weather overviewHow to use our weather pages